Location: Albany
(35.0170°S, 117.8920°E)
Time: 16:11:36
(UTC+08:00)

Explorer 11/Cluster Stage 4 - Pass Details

Date: 31 January 2021
Orbit: 467 x 1257 km, 28.8° (Epoch: 02 March)

Event Time Altitude Azimuth Distance (km) Brightness Sun altitude
Rises 11:04:27 0° 275° (W) 3,501 9.7 65.3°
Reaches altitude 10° 11:08:18 10° 296° (WNW) 2,368 9.1 65.9°
Maximum altitude 11:11:27 15° 330° (NNW) 1,867 8.8 66.4°
Drops below altitude 10° 11:14:16 10° 6° (N) 2,067 9.2 66.8°
Sets 11:17:17 0° 29° (NNE) 2,826 9.8 67.2°
